Fort Stockton, TX

7:42 AM CDT on August 30, 2016 (GMT -0500)
Fort Stockton-Pecos County

Weather History for KFST - February, 2015

Change the Weather History Date:

Tuesday, February 24, 2015

  Actual Average Record
Temperature  
Mean Temperature 26 °F -  
Max Temperature 32 °F 64 °F 93 °F (2009)
Min Temperature 23 °F 40 °F 19 °F (2003)
Degree Days  
Heating Degree Days 38    
Moisture  
Dew Point 25 °F    
Average Humidity 95    
Maximum Humidity 100    
Minimum Humidity 88    
Precipitation  
Precipitation 0.00 in - - ()
Sea Level Pressure  
Sea Level Pressure 30.14 in    
Wind  
Wind Speed 3 mph (NW)    
Max Wind Speed 14 mph    
Max Gust Speed -    
Visibility 8 miles    
Events      
Averages and records for this station are not official NWS values.
T = Trace of Precipitation, MM = Missing Value Source: NWS Daily Summary

Daily Weather History Graph

Daily Weather History Graph

Search for Another Location

Airport or City:

Trip Planner

Search our weather history database for the weather conditions in past years. The results will help you decide how hot, cold, wet, or windy it might be!

Date:

Astronomy

Feb. 24, 2015 Rise Set
Actual Time 7:23 AM CST 6:46 PM CST
Civil Twilight 6:59 AM CST 7:10 PM CST
Nautical Twilight 6:31 AM CST 7:38 PM CST
Astronomical Twilight 6:03 AM CST 8:06 PM CST
Moon 11:25 AM CST (2/24) 12:12 AM CST (2/24)
Length of Visible Light 12h 11m
Length of Day
11h 22m
Waxing Crescent, 40% of the Moon is Illuminated
Feb 24
Waxing Crescent
Feb 25
First Quarter
Mar 5
Full
Mar 13
Last Quarter
Mar 20
New

Hourly Weather History & Observations

Time (CST) Temp. Windchill Dew Point Humidity Pressure Visibility Wind Dir Wind Speed Gust Speed Precip Events Conditions
12:53 AM 24.1 °F - 23.0 °F 96% 30.32 in 10.0 mi Calm Calm - N/A   Overcast
1:45 AM 24.1 °F - 23.0 °F 96% 30.26 in 10.0 mi Calm Calm - N/A   Overcast
1:53 AM 24.1 °F - 23.0 °F 96% 30.30 in 10.0 mi Calm Calm - N/A   Overcast
2:53 AM 24.1 °F - 23.0 °F 96% 30.27 in 10.0 mi Calm Calm - N/A   Overcast
3:53 AM 24.1 °F 18.2 °F 23.0 °F 96% 30.25 in 10.0 mi NE 4.6 mph - N/A   Overcast
4:33 AM 24.1 °F 18.2 °F 23.0 °F 96% 30.21 in 10.0 mi North 4.6 mph - N/A   Overcast
4:53 AM 24.1 °F 19.7 °F 21.9 °F 91% 30.25 in 10.0 mi NNE 3.5 mph - N/A   Overcast
5:02 AM 24.1 °F - 23.0 °F 96% 30.21 in 10.0 mi Calm Calm - N/A   Overcast
5:20 AM 24.1 °F 19.7 °F 23.0 °F 96% 30.21 in 10.0 mi NNE 3.5 mph - N/A   Overcast
5:53 AM 24.1 °F 19.7 °F 23.0 °F 96% 30.24 in 10.0 mi NNW 3.5 mph - N/A   Overcast
6:53 AM 23.0 °F - 23.0 °F 100% 30.24 in 10.0 mi Calm Calm - N/A   Overcast
7:53 AM 24.1 °F - 23.0 °F 96% 30.25 in 8.0 mi Calm Calm - N/A   Overcast
8:53 AM 24.1 °F - 23.0 °F 96% 30.25 in 9.0 mi Calm Calm - N/A   Overcast
9:53 AM 24.1 °F 18.2 °F 24.1 °F 100% 30.27 in 8.0 mi WNW 4.6 mph - N/A   Overcast
10:00 AM 24.1 °F - 24.1 °F 100% 30.23 in 8.0 mi Calm Calm - N/A   Overcast
10:18 AM 24.1 °F 17.0 °F 24.1 °F 100% 30.23 in 6.0 mi NW 5.8 mph - N/A   Overcast
10:53 AM 25.0 °F 18.1 °F 24.1 °F 96% 30.25 in 4.0 mi NW 5.8 mph - N/A   Overcast
11:09 AM 25.0 °F 20.7 °F 24.1 °F 96% 30.22 in 4.0 mi NNW 3.5 mph - N/A   Overcast
11:34 AM 26.1 °F 21.9 °F 25.0 °F 96% 30.21 in 4.0 mi North 3.5 mph - N/A   Overcast
11:53 AM 26.1 °F - 25.0 °F 96% 30.22 in 5.0 mi Calm Calm - N/A   Overcast
12:06 PM 26.1 °F 21.9 °F 25.0 °F 96% 30.19 in 5.0 mi NNW 3.5 mph - N/A   Overcast
12:53 PM 27.0 °F 23.0 °F 26.1 °F 96% 30.17 in 6.0 mi WNW 3.5 mph - N/A   Overcast
1:53 PM 28.0 °F 24.2 °F 26.1 °F 92% 30.11 in 7.0 mi NW 3.5 mph - N/A   Overcast
2:53 PM 28.9 °F 23.9 °F 27.0 °F 92% 30.06 in 6.0 mi West 4.6 mph - N/A   Overcast
3:34 PM 30.0 °F - 27.0 °F 88% 30.02 in 9.0 mi Calm Calm - N/A   Overcast
3:53 PM 28.9 °F - 27.0 °F 92% 30.01 in 10.0 mi Calm Calm - N/A   Overcast
4:53 PM 30.0 °F - 28.0 °F 92% 29.97 in 7.0 mi Calm Calm - N/A   Overcast
5:53 PM 30.0 °F 23.2 °F 28.0 °F 92% 29.94 in 7.0 mi NE 6.9 mph - N/A   Overcast
6:53 PM 30.0 °F 25.2 °F 28.0 °F 92% 29.98 in 9.0 mi NW 4.6 mph - N/A   Overcast
7:53 PM 30.0 °F 20.5 °F 28.0 °F 92% 29.99 in 10.0 mi NNW 11.5 mph - N/A   Overcast
8:11 PM 30.0 °F 21.7 °F 28.0 °F 92% 29.98 in 10.0 mi NNW 9.2 mph - N/A   Overcast
8:25 PM 30.0 °F 23.2 °F 28.0 °F 92% 29.96 in 10.0 mi NW 6.9 mph - N/A   Mostly Cloudy
8:53 PM 30.0 °F 24.1 °F 28.0 °F 92% 29.98 in 10.0 mi West 5.8 mph - N/A   Clear
9:17 PM 30.0 °F 21.7 °F 28.0 °F 92% 29.99 in 10.0 mi West 9.2 mph - N/A   Mostly Cloudy
9:31 PM 30.0 °F - 28.9 °F 96% 29.96 in 10.0 mi Calm Calm - N/A   Overcast
9:53 PM 30.0 °F 22.4 °F 28.9 °F 96% 29.99 in 10.0 mi SW 8.1 mph - N/A   Overcast
10:53 PM 30.9 °F 20.7 °F 28.9 °F 92% 30.01 in 9.0 mi SW 13.8 mph - N/A   Overcast
11:53 PM 32.0 °F 22.5 °F 30.0 °F 92% 29.99 in 9.0 mi WSW 12.7 mph - N/A   Overcast